Tracking 19570 objects as of 21-Feb-2019
HD Live streaming from Space Station
objects crossing your sky now

COSMOS 2253

Track COSMOS 2253 now!
10-day predictions
COSMOS 2253 is classified as:


NORAD ID: 22688
Int'l Code: 1993-038B
Perigee: 1,415.8 km
Apogee: 1,431.8 km
Inclination: 82.6 °
Period: 114.1 minutes
Semi major axis: 7794 km
RCS: 1.0582 m2 (large)
Launch date: June 24, 1993
Source: Commonwealth of Independent States (former USSR) (CIS)
Launch site: PLESETSK MISSILE AND SPACE COMPLEX (PKMTR)
aabbcc
Your satellite tracking list
Your tracking list is empty




NASA's NSSDC Master Catalog

Two Line Element Set (TLE):
1 22688U 93038B   19051.77162536 +.00000021 +00000-0 +60954-4 0  9993
2 22688 082.5899 158.8538 0010301 300.3494 059.6577 12.61520938181405
Source of the keplerian elements: AFSPC